Regional Weather Roundup
Issued by NWS

Home | Current Version | Previous Version | Graphics & Text | Print | Product List | Glossary On
Versions: 1 2 3 4 5 6 7 8 9 10 11 12 13 14 15 16 17 18 19 20 21 22 23 24 25 26 27 28 29 30 31 32 33 34 35 36 37 38 39 40 41 42 43 44 45 46 47 48 49 50
000
ASUS43 KLSX 041010
RWRMO

WEATHER SUMMARY FOR MISSOURI
NATIONAL WEATHER SERVICE SPRINGFIELD MO
500 AM CDT TUE AUG 04 2015

NOTE: "FAIR" INDICATES FEW OR NO CLOUDS BELOW 12,000 FEET WITH NO
       SIGNIFICANT WEATHER AND/OR OBSTRUCTIONS TO VISIBILITY.
       CURRENT SKY AND/OR WEATHER CONDITIONS ARE NOT AVAILABLE FOR
       CHILLICOTHE AND FARMINGTON.

MOZ001>031-035>038-043-044-053-054-041100-
...NORTHERN AND WESTERN MISSOURI...

CITY           SKY/WX    TMP DP  RH WIND       PRES   REMARKS
KANSAS CTY INT MOCLDY    73  67  81 SE10      29.94S
KANSAS C DTWN  CLEAR     74  68  81 E7        29.93R
LEE`S SUMMIT   CLEAR     71  67  87 E6        29.95R
ST JOSEPH      PTCLDY    72  66  81 E8        29.96R
CHILLICOTHE      N/A     71  65  81 E3        29.98R
KIRKSVILLE     CLOUDY    67  63  87 E6        29.97F

$$
MOZ066>068-077>081-088>096-101>105-041100-
...SOUTHWEST MISSOURI...

CITY           SKY/WX    TMP DP  RH WIND       PRES   REMARKS
SPRINGFIELD    CLEAR     71  67  87 S5        29.96S
JOPLIN         PTCLDY    72  65  78 S5        29.95R

$$
MOZ032>034-039>042-045>050-055>058-069>072-041100-
...CENTRAL MISSOURI...

CITY           SKY/WX    TMP DP  RH WIND       PRES   REMARKS
COLUMBIA       PTCLDY    71  66  84 NE7       29.97R
JEFFERSON CITY PTCLDY    73  66  78 N8        29.97R
ROLLA          CLEAR     69  68  96 SW7       29.96R
SEDALIA        PTCLDY    73  69  87 E7        29.98R
WHITEMAN AFB   MOCLDY    72  70  95 E5        29.95R
WARRENSBURG    MOCLDY    70  68  94 NE6       29.95R
OSAGE BEACH    CLEAR     70  66  88 CALM      29.97R

$$
MOZ051-052-059>065-041100-
...EAST CENTRAL MISSOURI...

CITY           SKY/WX    TMP DP  RH WIND       PRES   REMARKS
ST LOUIS INTL  CLOUDY    77  65  66 NE7       29.96R
SPIRIT OF STL  PTCLDY    73  71  93 CALM      29.95R
ST CHARLES     CLOUDY    73  67  81 NE6       29.96R

$$
MOZ072>076-082>087-097>100-106>115-041100-
...SOUTH CENTRAL AND SOUTHEAST MISSOURI...

CITY           SKY/WX    TMP DP  RH WIND       PRES   REMARKS
CAPE GIRARDEAU PTCLDY    73  71  93 CALM      29.94R
FARMINGTON     CLEAR     72  70  94 E3        30.01R
POPLAR BLUFF   MOCLDY    74  72  93 CALM      29.93S
WEST PLAINS    CLEAR     70  66  87 CALM      30.00R

$$


USA.gov is the U.S. government's official web portal to all federal, state and local government web resources and services.